FW3304 Weather Reports


Display with metric or nautical units.
time (UTC)temp
F
wind
direction
speed
MPH
gust
MPH
rain 1hr
in
rain 24hr
in
rain mn
in
humidity
%
barometer
mb
20260503213053 68 269 6.0 13.0 0.00 0.00 0.00 44 1016.0
20260503213015 68 219 6.0 17.0 0.00 0.00 0.00 43 1017.5
20260503211547 68 181 6.0 17.0 0.00 0.00 0.00 46 1016.3
20260503210045 68 223 9.0 13.0 0.00 0.00 0.00 44 1016.6
20260503210015 68 213 6.0 17.0 0.00 0.00 0.00 44 1018.0
20260503204542 68 262 9.0 17.0 0.00 0.00 0.00 43 1016.9
20260503203044 68 235 8.0 16.0 0.00 0.00 0.00 45 1017.0
20260503203015 68 226 6.0 17.0 0.00 0.00 0.00 46 1018.4
20260503201538 67 210 5.0 12.0 0.00 0.00 0.00 46 1017.5
20260503200033 67 250 8.0 16.0 0.00 0.00 0.00 45 1017.9
20260503200015 67 227 6.0 17.0 0.00 0.00 0.00 45 1019.2
20260503194532 67 225 7.0 14.0 0.00 0.00 0.00 46 1018.2
20260503193040 66 224 6.0 16.0 0.00 0.00 0.00 47 1019.8
20260503193026 66 261 7.0 14.0 0.00 0.00 0.00 47 1018.5
20260503191534 66 221 6.0 13.0 0.00 0.00 0.00 48 1018.8
20260503190021 66 202 6.0 17.0 0.00 0.00 0.00 47 1019.0
20260503190017 66 239 4.0 14.0 0.00 0.00 0.00 48 1020.4
20260503184518 65 207 7.0 13.0 0.00 0.00 0.00 48 1019.3
20260503183017 64 225 5.0 14.0 0.00 0.00 0.00 49 1020.7
20260503181514 64 204 6.0 11.0 0.00 0.00 0.00 50 1019.7
20260503180037 64 211 5.0 15.0 0.00 0.00 0.00 50 1021.0
20260503180011 64 206 6.0 12.0 0.00 0.00 0.00 50 1019.7
20260503174507 63 221 2.0 9.0 0.00 0.00 0.00 48 1019.9
20260503173016 62 206 5.0 15.0 0.00 0.00 0.00 49 1021.3
20260503173005 62 194 4.0 7.0 0.00 0.00 0.00 49 1020.1
20260503171502 62 214 6.0 14.0 0.00 0.00 0.00 52 1020.5
20260503170113 62 212 6.0 10.0 0.00 0.00 0.00 55 1020.8
20260503160107 59 141 5.0 9.0 0.00 0.00 0.00 56 1021.4
20260503081526 38 27 0.0 0.0 0.00 0.00 0.00 93 1020.3
20260503071519 38 27 0.0 0.0 0.00 0.00 0.00 93 1020.1
20260503054510 40 27 0.0 0.0 0.00 0.00 0.00 91 1020.2
20260503053020 40 0.0 0.0 0.00 0.00 0.00 91 1021.5
20260503053009 40 27 0.0 0.0 0.00 0.00 0.00 91 1020.2
20260503051510 40 27 0.0 0.0 0.00 0.00 0.00 91 1020.2
20260503050017 41 0.0 0.0 0.00 0.00 0.00 90 1021.5
20260503050005 41 27 0.0 0.0 0.00 0.00 0.00 90 1020.2
20260503044504 41 27 0.0 0.0 0.00 0.00 0.00 90 1020.2
20260503043016 41 27 0.0 0.0 0.00 0.00 0.00 89 1020.1
20260503041504 42 27 0.0 0.0 0.00 0.00 0.00 88 1020.0
20260503040015 42 0.0 0.0 0.00 0.00 0.00 88 1021.4
20260503040003 42 27 0.0 0.0 0.00 0.00 0.00 88 1020.0
20260503034502 43 27 0.0 0.0 0.00 0.00 0.00 88 1020.0
20260503033035 43 0.0 0.0 0.00 0.00 0.00 87 1021.4
20260503033009 43 27 0.0 0.0 0.00 0.00 0.00 87 1020.1
20260503031502 44 27 0.0 0.0 0.00 0.00 0.00 86 1020.1
20260503030105 44 27 0.0 0.0 0.00 0.00 0.00 86 1020.1
20260503030035 44 0.0 0.0 0.00 0.00 0.00 86 1021.3
20260503024559 45 27 0.0 0.0 0.00 0.00 0.00 85 1019.9
20260503023102 46 27 0.0 0.0 0.00 0.00 0.00 83 1019.7
20260503023015 46 0.0 0.0 0.00 0.00 0.00 83 1021.0
20260503021602 46 27 0.0 0.0 0.00 0.00 0.00 81 1019.6
20260503020059 48 27 0.0 0.0 0.00 0.00 0.00 79 1019.4
20260503020020 48 0.0 3.0 0.00 0.00 0.00 79 1020.4
20260503014559 49 27 0.0 0.0 0.00 0.00 0.00 77 1019.2
20260503013050 50 27 0.0 0.0 0.00 0.00 0.00 75 1018.9
20260503013015 50 27 0.0 7.0 0.00 0.00 0.00 75 1020.1
20260503011549 51 27 0.0 0.0 0.00 0.00 0.00 73 1018.8
20260503010053 52 15 1.0 3.0 0.00 0.00 0.00 72 1018.7
20260503010015 52 31 1.0 10.0 0.00 0.00 0.00 72 1020.0
20260503004558 53 8 2.0 6.0 0.00 0.00 0.00 71 1018.7
20260503003101 53 32 2.0 5.0 0.00 0.00 0.00 70 1018.5
20260503003015 53 32 3.0 13.0 0.00 0.00 0.00 70 1019.6
20260503001600 54 30 3.0 8.0 0.00 0.00 0.00 69 1018.3
20260503000042 55 19 3.0 7.0 0.00 0.00 0.00 68 1018.2
20260503000035 55 12 4.0 15.0 0.00 0.00 0.00 68 1019.3
20260502234541 55 4 4.0 12.0 0.00 0.00 0.00 66 1018.0
20260502233040 56 359 6.0 13.0 0.00 0.00 0.00 66 1018.0
20260502233015 56 8 5.0 17.0 0.00 0.00 0.00 66 1019.1
20260502231539 56 58 4.0 14.0 0.00 0.00 0.00 67 1018.0
20260502230038 56 23 5.0 13.0 0.00 0.00 0.00 67 1017.9
20260502230015 56 17 7.0 18.0 0.00 0.00 0.00 67 1019.1
20260502224537 57 47 8.0 16.0 0.00 0.00 0.00 65 1017.7
20260502223036 57 32 7.0 16.0 0.00 0.00 0.00 64 1017.6
20260502223019 57 3 8.0 21.0 0.00 0.00 0.00 64 1018.9
20260502221535 58 341 8.0 17.0 0.00 0.00 0.00 63 1017.3
20260502220036 58 14 7.0 17.0 0.00 0.00 0.00 62 1017.1
20260502214532 59 326 8.0 20.0 0.00 0.00 0.00 62 1016.9